Location: Beverley
(50.2667°N, 107.9667°W)
Time: 21:41:10
(UTC+00:00)

Envisat - Pass Details

Date: 21 January 2022
Orbit: 764 x 765 km, 98.2° (Epoch: 21 May)

Event Time Altitude Azimuth Distance (km) Brightness Sun altitude
Rises 00:19:22 0° 205° (SSW) 3,219 7.1 -5.6°
Reaches altitude 10° 00:22:12 10° 221° (SW) 2,298 6.7 -6.0°
Maximum altitude 00:26:01 21° 270° (W) 1,664 5.8 -6.6°
Drops below altitude 10° 00:29:51 10° 319° (NW) 2,311 5.7 -7.1°
Sets 00:32:43 0° 335° (NNW) 3,242 6.3 -7.6°
